Presure
130 131 133 131 131 132 126 117 115 133 134 129 136 136 135 141 135 133 136 140 138 140 146 173 146 152 136 144 124 123 122 117 124 116 106 114 115 98 118 116 93 122 123 108 128 122 92 116 113
140 135 137 139 138 143 142 140 138 139 138 144 146 146 152 150 189 182 226 232 233 227 226 183 257 244 283 204 266 258 262 202 155 151 145 143 139 141 135 133 125 125 121 110 117 124 118 119 112
150 150 150 149 147 143 138 132 147 143 156 159 225 212 221 215 209 213 225 209 213 226 228 237 252 264 255 231 278 266 258 267 258 231 238 250 205 138 137 147 140 146 147 136 145 98 124 105 93
157 155 156 157 158 157 160 156 222 211 209 207 208 216 204 212 217 203 211 233 219 224 223 216 218 165 159 159 162 164 166 179 255 206 264 251 258 234 228 209 84 146 142 91 128 162 161 157 156
227 218 225 212 205 209 215 216 212 199 216 212 199 203 211 202 207 208 202 230 230 229 214 152 170 233 223 249 216 230 257 268 267 259 268 255 240 243 258 237 227 216 191 148 213 226 211 182 166
223 209 204 212 207 207 203 205 167 143 196 199 191 192 195 194 191 192 200 181 225 218 226 204 209 225 216 181 241 158 250 242 246 275 253 255 243 252 216 217 213 226 205 204 218 221 214 239 129
219 159 157 208 203 212 204 207 207 206 149 186 188 205 178 192 151 148 184 191 205 221 220 224 199 174 159 201 205 216 229 248 260 282 260 268 242 228 242 201 206 227 219 216 227 218 216 217 221
205 211 209 207 201 203 205 201 197 203 175 191 184 149 149 156 193 188 157 210 215 222 213 200 142 200 151 210 214 223 241 240 245 233 289 260 242 232 238 228 220 222 221 138 214 217 225 226 228
194 210 206 197 200 202 212 205 201 192 185 193 189 197 193 152 197 216 215 206 200 194 212 235 212 211 212 211 199 205 246 198 247 240 224 249 235 236 249 228 215 234 221 197 226 209 223 227 225
200 197 193 195 199 198 194 204 200 154 194 198 185 181 192 202 200 219 212 191 200 193 183 203 219 197 201 217 201 187 217 221 216 254 329 255 245 238 242 236 212 210 219 223 227 204 238 230 236
201 202 199 178 195 193 131 197 194 194 187 197 201 190 187 197 212 205 210 203 199 201 207 199 220 207 200 216 210 187 158 183 219 246 328 269 237 223 242 224 220 254 214 204 219 230 235 229 215
200 194 205 183 204 199 194 203 203 204 200 204 206 210 200 202 205 187 193 201 207 197 187 193 207 202 197 207 130 215 188 177 235 269 315 265 239 202 200 225 212 250 240 229 227 228 203 213 199
186 200 200 180 199 161 189 180 205 176 189 195 182 206 203 211 191 194 189 198 205 207 197 208 205 208 194 198 204 193 210 204 129 265 307 248 236 228 204 196 219 232 252 218 216 228 230 201 210
175 194 185 185 196 194 192 178 169 162 185 193 192 177 210 162 185 183 203 202 200 203 193 181 202 193 209 204 190 207 208 222 230 265 299 199 228 225 202 198 205 224 240 236 229 223 201 198 206
136 198 206 201 139 158 193 136 186 140 195 160 192 187 189 182 193 199 191 201 205 204 202 191 204 214 212 219 184 166 176 237 230 279 100 248 226 215 232 202 225 209 228 234 219 201 192 201 207
164 204 134 214 208 188 194 182 186 188 192 156 197 191 196 197 194 191 204 213 189 202 203 202 192 199 204 217 204 169 221 240 229 280 296 251 228 217 220 207 216 222 226 204 198 221 185 189 187
172 161 207 196 208 127 192 199 195 188 180 190 188 195 196 196 196 206 207 184 205 190 182 210 210 203 195 213 197 213 220 225 253 287 278 249 226 218 185 248 213 230 221 205 210 202 176 186 171
181 197 203 222 216 211 209 199 133 201 204 199 191 201 201 193 189 201 213 193 194 196 198 199 204 202 188 215 202 161 185 230 254 281 237 242 224 218 206 229 203 244 221 192 194 178 181 169 181
237 234 235 216 199 223 187 195 202 198 193 192 206 205 199 204 208 209 202 203 186 201 196 204 189 205 206 157 206 201 225 229 266 273 253 229 225 207 216 227 225 249 219 192 184 182 171 171 181
236 232 234 224 207 218 217 214 200 204 204 196 183 198 215 196 202 199 189 209 206 207 196 202 192 203 159 210 180 227 219 232 269 273 252 226 224 208 247 212 229 248 204 204 210 174 175 171 171
236 226 219 207 218 230 218 211 198 205 200 198 197 177 195 201 202 193 199 199 183 195 197 190 219 206 191 186 194 172 217 229 275 282 245 223 220 208 200 215 230 212 194 198 204 171 180 169 171
253 253 237 224 228 230 219 219 212 212 212 207 202 205 198 198 200 203 192 202 196 192 205 211 216 192 219 214 152 242 225 252 270 291 240 222 217 208 222 238 229 207 194 202 183 182 173 170 182
296 264 256 240 233 225 229 218 212 213 218 217 215 207 201 200 195 200 205 200 201 198 208 204 210 199 224 155 224 229 187 254 271 353 233 221 212 210 217 212 228 202 189 193 186 169 172 177 172
274 288 304 281 237 233 220 217 213 214 213 221 218 211 207 202 200 203 203 201 195 202 211 198 194 206 226 221 218 242 215 253 324 283 228 216 207 198 213 215 229 202 201 182 173 180 177 175 178
270 271 287 293 301 225 219 222 221 217 210 214 220 212 209 203 203 204 204 204 201 206 204 198 202 214 224 194 221 215 218 255 319 250 223 216 179 203 215 201 202 216 194 192 183 179 180 166 169
268 272 266 279 283 277 269 239 227 221 230 228 220 210 209 202 198 166 183 209 210 210 198 98 201 210 226 222 225 178 250 267 233 240 220 212 199 192 204 196 212 247 215 189 187 185 180 175 176
267 268 260 267 274 279 270 264 253 243 233 222 218 217 201 210 210 136 210 217 213 203 210 210 209 160 224 232 229 220 241 267 357 230 214 209 199 195 207 205 206 237 219 195 184 182 183 181 192
269 267 258 258 270 272 269 259 256 241 235 227 220 100 218 163 181 175 84 91 169 99 211 214 220 213 189 188 234 240 238 244 245 224 213 204 199 209 203 210 203 222 218 196 195 187 168 165 179
332 265 268 259 267 269 260 266 255 248 244 239 227 221 224 223 222 229 221 112 108 138 212 216 233 193 174 226 226 245 231 272 228 222 210 203 199 202 194 205 202 201 217 204 193 191 183 187 163
325 333 267 261 243 256 260 253 260 261 251 252 256 249 256 244 222 230 171 130 118 117 223 225 234 231 209 223 234 248 257 275 220 221 208 200 188 196 214 204 208 203 221 201 193 183 189 184 182
Wind_Speed
65 67 69 69 68 68 63 57 55 67 68 66 71 70 70 74 68 68 69 71 70 72 73 76 72 73 71 77 66 64 64 58 63 56 49 53 55 48 57 55 48 63 64 54 70 64 31 57 53
75 70 72 76 75 79 76 74 72 73 71 77 81 78 82 81 69 74 52 49 50 56 61 61 41 46 30 59 41 43 45 69 81 78 76 74 74 77 74 73 68 73 70 56 59 67 56 55 52
82 81 82 84 84 79 73 70 78 76 81 82 56 63 53 56 62 59 48 60 59 52 54 52 39 33 34 56 33 39 44 41 49 54 65 59 68 73 72 83 83 90 88 79 89 40 64 52 34
86 85 86 89 91 89 88 86 59 67 66 65 62 54 62 54 52 64 55 46 48 48 50 62 64 65 67 71 72 72 73 70 47 73 43 54 40 64 59 69 29 86 87 29 64 98 88 83 84
64 69 60 68 71 69 62 61 59 70 57 58 63 59 54 58 53 57 58 47 46 44 52 70 62 44 55 42 55 45 40 39 39 41 39 45 57 34 28 38 55 61 78 53 75 52 90 90 95
58 70 69 60 67 67 65 65 68 69 64 61 67 69 62 62 64 65 57 66 49 46 42 58 59 45 55 70 44 63 41 43 41 38 40 41 48 34 63 65 67 57 75 81 68 71 76 55 56
56 69 68 59 64 62 65 62 63 64 73 66 64 61 64 61 75 75 65 62 55 48 42 43 63 65 67 72 50 50 51 42 44 38 37 37 43 51 43 45 67 61 68 76 66 74 73 70 60
63 59 57 59 66 66 70 65 69 63 69 61 71 77 72 68 65 63 80 51 53 52 48 51 58 59 58 57 58 58 48 49 45 42 37 37 43 46 43 49 56 60 67 45 68 73 68 58 51
72 62 60 69 70 69 72 61 64 67 73 64 70 64 68 64 60 51 51 50 54 53 48 54 46 48 47 55 68 66 50 53 50 42 37 37 42 43 37 49 59 63 60 67 65 64 65 58 48
69 70 72 75 73 73 81 63 69 52 66 61 71 75 67 61 59 50 49 52 53 54 55 44 51 55 56 49 65 60 57 48 45 45 36 33 36 38 35 42 57 60 59 56 62 64 62 44 51
72 71 75 77 78 77 45 71 77 71 73 67 64 68 69 61 56 50 50 49 51 52 54 57 57 48 48 50 56 45 31 43 45 49 35 30 32 32 32 38 49 55 53 54 54 54 56 50 35
72 73 75 77 78 74 81 76 72 72 70 69 65 62 58 57 58 55 52 52 53 53 57 54 55 58 49 51 33 57 67 47 49 40 35 31 33 36 36 35 44 40 50 56 49 51 37 32 36
68 74 77 78 78 78 81 73 73 72 73 71 67 63 54 55 56 55 56 54 52 50 53 61 64 62 57 62 53 49 61 45 39 41 35 33 32 30 37 42 38 34 37 46 41 42 44 27 27
81 75 76 75 79 82 80 81 74 76 77 75 70 61 62 69 58 59 56 60 52 54 51 59 63 60 53 46 47 56 46 57 52 43 34 37 33 32 39 42 38 27 27 41 40 33 30 25 24
73 82 85 82 80 82 84 68 84 61 83 74 72 69 69 59 58 59 56 59 55 53 56 59 64 64 60 65 73 26 52 55 52 38 43 37 35 32 33 39 32 29 26 32 35 32 31 23 24
82 86 59 85 92 89 92 79 88 88 82 71 81 74 74 72 67 57 65 66 53 55 57 59 53 57 53 61 55 35 47 57 49 37 32 38 37 32 32 35 34 28 31 34 33 32 34 31 30
89 87 89 92 93 57 91 92 93 90 76 84 83 79 77 73 68 69 64 54 60 55 54 56 63 55 55 59 61 53 46 49 48 39 32 37 39 34 37 36 32 32 33 40 34 34 42 26 37
92 95 94 90 89 97 96 93 65 93 95 93 88 87 85 74 64 71 68 62 58 58 55 58 64 60 63 66 58 40 55 51 46 37 36 38 38 34 33 37 35 35 39 43 41 40 32 40 30
89 93 88 90 91 97 85 94 95 95 91 89 87 87 82 84 81 74 65 64 56 61 61 60 57 65 64 27 59 60 49 48 45 34 37 40 38 32 35 35 30 39 43 45 45 40 41 36 30
89 88 86 91 95 98 95 96 99 97 95 89 89 87 82 80 74 74 66 66 63 64 60 62 58 65 36 66 41 55 49 46 44 35 39 42 36 30 31 33 33 42 49 43 41 41 41 40 38
89 89 89 92 98 94 94 96 98 98 99 94 91 81 88 85 81 73 72 68 65 64 61 61 63 66 53 48 57 31 46 45 40 35 41 41 36 30 31 33 35 46 48 46 47 43 46 42 40
87 88 94 98 98 91 98 93 99 99 99 96 96 93 90 86 81 79 72 69 70 67 62 61 61 56 66 66 42 54 48 48 36 35 42 40 33 27 28 34 40 48 47 48 51 49 46 44 41
71 93 94 99 99 97 98 96 94 100 94 92 96 93 91 87 83 80 79 73 70 71 61 62 62 58 66 52 56 50 41 44 35 36 42 39 32 27 24 34 45 49 47 51 55 43 48 48 44
69 72 71 92 103 101 91 98 94 95 92 94 90 92 90 89 83 81 80 77 72 73 63 64 61 62 65 63 53 53 43 38 35 36 43 39 32 29 25 33 44 52 55 51 48 51 51 49 44
65 67 67 72 75 89 100 98 95 99 95 95 86 87 91 89 86 82 80 80 77 75 64 68 67 65 61 54 54 49 41 34 34 38 42 37 30 28 27 34 37 55 56 58 57 53 54 43 44
66 65 68 65 66 69 84 101 97 99 99 90 84 90 91 82 79 59 69 79 78 69 68 34 57 59 62 61 53 29 46 37 36 43 44 38 36 35 27 34 35 45 64 56 59 58 54 52 49
70 64 65 68 69 67 73 80 92 91 89 90 87 90 82 88 86 45 80 78 75 70 70 67 65 47 64 59 55 50 40 34 37 44 42 38 39 36 29 33 35 34 53 62 57 57 56 54 54
70 70 72 71 66 61 66 77 81 87 87 89 90 30 88 58 66 63 24 25 50 23 69 66 64 55 48 54 54 49 36 33 41 46 43 39 40 30 30 32 35 33 53 60 59 59 50 44 50
63 73 72 73 67 60 63 66 74 82 86 89 91 91 92 88 85 80 80 38 26 37 69 67 63 52 33 57 51 45 37 36 44 45 44 40 42 35 33 33 38 35 54 58 58 58 56 58 45
63 69 76 73 69 65 65 69 69 76 77 80 79 86 76 80 75 77 59 51 42 32 70 66 64 60 55 64 49 47 38 39 49 47 46 42 41 39 32 33 37 39 43 60 59 52 58 57 59
Wind_Direction
268 268 268 268 268 269 268 267 266 270 270 270 272 271 272 273 269 269 269 270 268 269 269 273 268 269 267 267 270 270 270 269 269 269 263 269 269 271 269 267 274 272 268 258 267 260 280 265 272
269 270 271 271 270 271 271 271 272 272 273 274 274 273 274 273 278 279 287 290 291 288 287 276 305 289 298 272 275 266 268 267 266 264 263 264 266 267 268 269 270 268 264 261 264 264 263 265 270
269 270 271 272 272 271 271 271 273 273 274 275 277 281 279 281 282 284 288 285 287 289 289 297 318 317 304 280 290 276 268 269 266 263 263 262 262 264 265 266 265 265 265 268 267 266 271 271 277
269 270 271 272 271 272 274 275 273 278 278 280 279 277 281 280 284 281 286 290 286 287 287 287 288 273 272 273 272 271 270 269 266 267 260 261 255 261 257 255 278 263 264 260 268 266 269 271 273
268 270 269 273 273 273 274 273 271 277 275 275 279 277 278 279 280 282 283 294 287 287 283 277 279 304 292 321 275 279 290 287 278 268 265 261 260 246 205 225 242 248 256 255 254 241 261 266 269
265 268 270 268 269 270 273 272 274 275 274 274 278 278 276 278 280 281 282 282 292 284 283 282 287 304 296 278 317 277 298 284 280 280 265 255 258 236 258 258 256 231 254 256 248 254 262 246 271
268 266 267 267 268 267 265 267 268 270 275 274 274 275 276 276 276 281 280 281 292 287 282 291 281 281 281 285 297 302 296 296 290 293 267 255 253 253 235 241 255 230 237 252 244 258 264 270 264
265 264 267 265 264 264 263 267 269 269 272 272 274 277 277 278 274 277 282 295 295 297 291 279 272 283 273 290 298 302 307 300 295 287 269 257 251 248 235 231 244 239 242 255 256 259 262 262 259
270 263 263 265 264 263 265 264 265 269 272 272 274 275 276 274 279 288 291 292 289 282 293 299 288 287 291 297 290 294 313 292 301 291 281 257 254 253 235 238 243 228 242 266 252 261 263 268 263
269 269 269 266 266 267 271 266 268 266 268 270 273 276 277 281 282 288 287 276 288 285 288 284 293 280 282 303 288 290 302 302 294 296 281 253 248 257 253 241 247 252 246 246 245 261 260 268 263
269 269 268 267 269 271 264 271 271 268 270 269 267 271 274 280 286 282 289 289 286 286 290 287 294 287 283 303 293 296 278 287 302 290 284 250 248 255 252 242 240 235 247 254 247 256 256 262 260
268 269 269 267 269 270 271 272 274 275 273 275 274 276 277 282 281 277 280 288 289 282 282 279 295 287 282 302 277 303 296 300 295 300 288 243 237 251 254 248 244 243 237 237 246 249 237 255 247
272 267 268 269 270 269 271 269 269 270 270 272 271 276 276 274 276 278 278 285 286 287 287 290 290 287 285 297 291 300 301 299 278 294 287 235 236 239 249 256 248 247 240 238 240 246 256 234 241
265 269 269 269 268 270 269 270 270 271 271 271 275 273 275 272 271 273 283 284 283 286 281 273 284 280 297 286 284 299 308 298 294 294 277 241 241 234 247 254 250 245 242 235 238 234 227 233 233
272 270 263 263 270 269 267 278 271 273 272 268 275 276 277 270 277 278 278 282 282 285 283 280 286 293 295 293 283 279 293 300 296 296 264 233 241 239 241 245 237 239 221 228 223 204 221 221 212
267 265 268 261 258 266 264 267 268 270 272 274 272 276 276 278 281 279 282 282 277 282 284 285 279 282 285 295 288 276 300 302 293 292 266 231 237 235 237 247 238 231 217 212 207 221 220 224 219
266 268 264 263 263 270 266 261 264 269 274 273 274 274 272 272 274 277 277 277 276 278 275 291 289 293 274 291 278 300 294 293 299 294 257 229 235 232 252 236 232 232 214 203 209 195 236 218 234
268 263 264 260 260 260 258 261 274 263 264 266 273 272 272 275 277 277 279 275 277 281 281 282 285 284 270 291 282 259 292 293 298 285 251 227 236 230 232 237 235 225 206 204 197 227 210 237 222
254 257 254 258 259 254 259 261 259 262 267 269 266 267 270 270 271 273 273 276 273 279 281 281 277 286 286 251 287 290 282 286 296 271 236 231 233 233 236 235 237 228 200 200 209 210 228 229 225
255 255 253 252 257 258 254 253 259 260 261 264 269 268 265 271 270 272 276 272 275 274 280 280 278 283 261 289 286 290 278 286 296 264 231 232 233 230 237 226 235 227 194 197 206 218 216 229 232
251 254 254 257 255 250 253 254 259 257 260 261 263 264 270 270 269 273 271 272 273 275 275 275 282 281 277 278 279 289 279 281 292 251 228 233 231 230 227 226 226 200 204 193 201 223 218 232 235
246 244 244 252 249 248 251 248 254 255 255 257 261 259 265 268 270 269 272 271 273 274 276 278 278 275 281 281 258 288 273 289 283 243 225 231 230 226 234 236 216 201 203 201 204 213 224 233 233
257 246 243 241 245 246 244 252 252 257 254 252 253 257 261 264 268 269 269 270 270 273 276 276 277 274 280 256 280 280 273 287 278 238 221 224 226 227 227 220 207 204 212 198 206 228 230 229 234
254 254 252 245 242 247 249 253 251 254 256 253 252 253 256 260 263 264 265 267 268 272 273 272 271 277 275 274 276 277 267 282 274 229 219 225 222 221 219 218 210 206 204 213 225 219 227 232 233
248 252 253 248 245 242 247 250 250 251 255 256 253 253 254 257 260 261 261 262 265 268 270 268 271 277 272 262 271 269 271 278 258 220 219 221 229 220 225 218 213 210 214 212 218 222 226 237 238
249 246 250 254 246 240 238 244 246 249 248 248 248 248 252 255 257 255 257 260 261 265 264 257 268 271 268 266 268 247 274 278 234 216 219 221 223 217 224 221 220 222 214 216 219 222 226 231 237
248 244 243 245 244 239 238 238 242 241 242 247 248 248 251 253 255 247 259 259 259 262 263 267 269 243 264 265 265 258 265 272 241 216 220 218 225 218 230 224 217 227 213 211 219 225 227 231 233
245 242 241 244 244 243 237 239 241 242 241 241 244 248 251 254 253 252 253 260 253 254 262 263 265 254 248 257 264 263 257 235 223 214 220 217 226 224 222 231 220 223 211 209 215 220 230 234 237
238 240 240 240 241 240 238 240 240 240 240 240 243 248 249 252 254 254 254 247 261 264 259 263 261 248 234 261 261 261 246 249 221 213 217 219 223 224 216 225 222 216 210 209 214 219 226 232 236
234 234 237 238 240 236 234 235 237 238 238 240 240 244 241 243 246 248 254 247 252 255 259 262 255 253 251 255 262 262 252 240 220 212 215 218 228 221 235 230 225 218 218 213 218 223 224 228 235